TimeCST,TemperatureF,Dew PointF,Humidity,Sea Level PressureIn,VisibilityMPH,Wind Direction,Wind SpeedMPH,Gust SpeedMPH,PrecipitationIn,Events,Conditions,WindDirDegrees,DateUTC
12:15 AM,39.9,33.1,77,30.46,10.0,Calm,Calm,-,N/A,,Clear,0,2012-11-17 06:15:00
12:35 AM,39.2,32.4,76,30.47,10.0,ESE,3.5,-,N/A,,Clear,120,2012-11-17 06:35:00
12:55 AM,37.8,32.2,80,30.47,10.0,Calm,Calm,-,N/A,,Clear,0,2012-11-17 06:55:00
1:15 AM,38.8,31.8,76,30.47,10.0,Calm,Calm,-,N/A,,Clear,0,2012-11-17 07:15:00
1:35 AM,36.0,30.9,82,30.48,10.0,Calm,Calm,-,N/A,,Scattered Clouds,0,2012-11-17 07:35:00
1:55 AM,33.6,30.7,89,30.49,7.0,Calm,Calm,-,N/A,,Clear,0,2012-11-17 07:55:00
2:15 AM,33.3,30.2,89,30.49,7.0,Calm,Calm,-,N/A,,Clear,0,2012-11-17 08:15:00
2:35 AM,34.2,31.1,89,30.49,7.0,Calm,Calm,-,N/A,,Clear,0,2012-11-17 08:35:00
2:55 AM,32.4,29.8,90,30.48,7.0,Calm,Calm,-,N/A,,Clear,0,2012-11-17 08:55:00
3:15 AM,31.6,29.7,92,30.49,7.0,Calm,Calm,-,N/A,,Clear,0,2012-11-17 09:15:00
3:35 AM,32.0,29.3,90,30.49,7.0,Calm,Calm,-,N/A,,Clear,0,2012-11-17 09:35:00
3:55 AM,37.8,31.1,77,30.48,10.0,ESE,5.8,-,N/A,,Scattered Clouds,120,2012-11-17 09:55:00
4:15 AM,35.4,30.7,83,30.49,7.0,SE,3.5,-,N/A,,Clear,140,2012-11-17 10:15:00
4:35 AM,37.0,30.9,79,30.49,7.0,ESE,5.8,-,N/A,,Clear,120,2012-11-17 10:35:00
4:55 AM,35.6,29.7,79,30.49,7.0,Calm,Calm,-,N/A,,Clear,0,2012-11-17 10:55:00
5:15 AM,32.5,28.9,87,30.49,7.0,Calm,Calm,-,N/A,,Clear,0,2012-11-17 11:15:00
5:35 AM,31.8,28.2,87,30.49,5.0,Calm,Calm,-,N/A,,Clear,0,2012-11-17 11:35:00
5:55 AM,32.2,29.5,90,30.50,7.0,Calm,Calm,-,N/A,,Clear,0,2012-11-17 11:55:00
6:15 AM,31.8,28.8,88,30.50,5.0,Calm,Calm,-,N/A,,Clear,0,2012-11-17 12:15:00
6:35 AM,30.2,27.7,90,30.51,5.0,Calm,Calm,-,N/A,,Clear,0,2012-11-17 12:35:00
6:55 AM,31.3,28.4,89,30.51,4.0,Calm,Calm,-,N/A,,Clear,0,2012-11-17 12:55:00
7:15 AM,30.9,28.6,91,30.51,4.0,Calm,Calm,-,N/A,,Mist,0,2012-11-17 13:15:00
7:35 AM,32.5,29.8,90,30.52,4.0,Calm,Calm,-,N/A,,Mist,0,2012-11-17 13:35:00
7:55 AM,34.2,31.1,89,30.52,4.0,Calm,Calm,-,N/A,,Mist,0,2012-11-17 13:55:00
8:15 AM,36.1,32.2,86,30.52,4.0,ESE,3.5,-,N/A,,Mist,110,2012-11-17 14:15:00
8:35 AM,39.4,33.1,78,30.52,5.0,Calm,Calm,-,N/A,,Haze,0,2012-11-17 14:35:00
8:55 AM,41.9,34.5,75,30.52,4.0,SE,4.6,-,N/A,,Haze,130,2012-11-17 14:55:00
9:15 AM,44.4,35.6,71,30.53,5.0,SE,3.5,-,N/A,,Haze,130,2012-11-17 15:15:00
9:35 AM,47.5,35.8,64,30.53,7.0,SSE,4.6,-,N/A,,Unknown,150,2012-11-17 15:35:00
9:55 AM,47.3,37.2,68,30.53,5.0,Calm,Calm,-,N/A,,Haze,0,2012-11-17 15:55:00
10:15 AM,50.7,37.6,61,30.53,7.0,SSE,5.8,-,N/A,,Clear,150,2012-11-17 16:15:00
10:35 AM,52.3,38.1,58,30.52,7.0,SSE,4.6,-,N/A,,Clear,160,2012-11-17 16:35:00
11:55 AM,56.5,36.9,48,30.48,10.0,SE,8.1,-,N/A,,Clear,140,2012-11-17 17:55:00
12:15 PM,57.0,37.0,47,30.47,10.0,SSE,8.1,-,N/A,,Clear,150,2012-11-17 18:15:00
12:35 PM,57.2,35.6,44,30.46,10.0,SE,10.4,-,N/A,,Clear,130,2012-11-17 18:35:00
12:55 PM,58.1,36.0,44,30.46,10.0,SE,9.2,-,N/A,,Clear,140,2012-11-17 18:55:00
1:15 PM,58.1,34.2,41,30.45,10.0,SE,10.4,-,N/A,,Clear,140,2012-11-17 19:15:00
1:35 PM,58.8,34.5,40,30.45,10.0,SE,8.1,-,N/A,,Clear,140,2012-11-17 19:35:00
1:55 PM,59.2,34.0,39,30.44,10.0,SE,9.2,-,N/A,,Clear,130,2012-11-17 19:55:00
2:15 PM,59.2,34.3,39,30.44,10.0,SE,6.9,-,N/A,,Clear,140,2012-11-17 20:15:00
2:35 PM,59.0,35.6,42,30.44,10.0,SE,6.9,-,N/A,,Clear,140,2012-11-17 20:35:00
2:55 PM,57.2,36.3,46,30.44,10.0,SSE,4.6,-,N/A,,Clear,150,2012-11-17 20:55:00
3:15 PM,56.8,35.8,45,30.44,10.0,SSE,5.8,-,N/A,,Clear,150,2012-11-17 21:15:00
3:35 PM,56.5,34.7,44,30.44,10.0,SE,5.8,-,N/A,,Clear,130,2012-11-17 21:35:00
3:55 PM,55.6,33.8,44,30.44,10.0,SE,5.8,-,N/A,,Clear,130,2012-11-17 21:55:00
4:15 PM,54.0,35.1,49,30.43,10.0,ESE,5.8,-,N/A,,Clear,120,2012-11-17 22:15:00
4:35 PM,52.7,34.7,50,30.43,10.0,ESE,5.8,-,N/A,,Clear,110,2012-11-17 22:35:00
4:55 PM,51.8,33.8,50,30.43,10.0,East,3.5,-,N/A,,Clear,90,2012-11-17 22:55:00
5:15 PM,50.9,34.2,53,30.43,10.0,East,3.5,-,N/A,,Clear,100,2012-11-17 23:15:00
5:35 PM,49.8,35.8,59,30.42,10.0,East,3.5,-,N/A,,Clear,100,2012-11-17 23:35:00
5:55 PM,49.5,36.0,60,30.42,10.0,ESE,6.9,-,N/A,,Clear,110,2012-11-17 23:55:00
6:15 PM,48.9,36.1,61,30.41,10.0,ESE,6.9,-,N/A,,Clear,110,2012-11-18 00:15:00
6:35 PM,48.4,36.5,64,30.41,10.0,ESE,8.1,-,N/A,,Clear,110,2012-11-18 00:35:00
6:55 PM,48.2,36.5,64,30.41,10.0,ESE,8.1,-,N/A,,Clear,110,2012-11-18 00:55:00
7:15 PM,48.2,37.2,66,30.41,10.0,East,8.1,-,N/A,,Clear,100,2012-11-18 01:15:00
7:35 PM,47.7,37.2,67,30.42,10.0,ESE,6.9,-,N/A,,Clear,110,2012-11-18 01:35:00
7:55 PM,46.8,36.7,68,30.43,7.0,ESE,3.5,-,N/A,,Clear,120,2012-11-18 01:55:00
8:15 PM,43.9,36.1,74,30.43,7.0,East,5.8,-,N/A,,Clear,100,2012-11-18 02:15:00
8:35 PM,45.7,36.5,70,30.44,7.0,ESE,5.8,-,N/A,,Clear,110,2012-11-18 02:35:00
8:55 PM,41.4,35.2,79,30.44,7.0,Calm,Calm,-,N/A,,Clear,0,2012-11-18 02:55:00
9:15 PM,41.5,35.8,80,30.44,7.0,East,3.5,-,N/A,,Clear,100,2012-11-18 03:15:00
9:35 PM,38.7,34.0,83,30.44,7.0,Calm,Calm,-,N/A,,Clear,0,2012-11-18 03:35:00
9:55 PM,38.1,33.1,82,30.44,7.0,Calm,Calm,-,N/A,,Clear,0,2012-11-18 03:55:00
10:15 PM,34.9,32.0,89,30.44,5.0,Calm,Calm,-,N/A,,Scattered Clouds,0,2012-11-18 04:15:00
10:35 PM,34.5,32.4,92,30.44,5.0,Calm,Calm,-,N/A,,Clear,0,2012-11-18 04:35:00
10:55 PM,34.0,32.0,92,30.43,5.0,Calm,Calm,-,N/A,,Clear,0,2012-11-18 04:55:00
11:15 PM,35.4,32.0,87,30.43,7.0,Calm,Calm,-,N/A,,Clear,0,2012-11-18 05:15:00
11:35 PM,34.2,32.0,92,30.43,7.0,Calm,Calm,-,N/A,,Clear,0,2012-11-18 05:35:00
11:55 PM,38.8,34.0,83,30.42,7.0,Calm,Calm,-,N/A,,Clear,0,2012-11-18 05:55:00